GFSNW_prec_pwat_012.txt.gz
Precipitable_Water
0.52 0.46 0.43 0.53 0.61 0.69 0.71 0.55 0.35 0.64 0.70 0.42 0.46 0.41 0.44 0.53 0.49 0.52 0.44 0.42 0.36 0.30 0.31 0.29 0.30 0.29 0.34 0.40 0.42 0.36 0.40 0.35 0.26 0.29 0.37 0.41 0.39 0.36 0.37 0.27 0.25 0.28 0.25 0.17
0.52 0.45 0.47 0.59 0.65 0.72 0.67 0.46 0.42 0.67 0.64 0.36 0.39 0.48 0.48 0.50 0.47 0.47 0.44 0.40 0.40 0.39 0.33 0.28 0.32 0.35 0.42 0.44 0.43 0.38 0.44 0.34 0.25 0.27 0.35 0.43 0.38 0.40 0.39 0.38 0.35 0.24 0.23 0.17
0.52 0.48 0.55 0.67 0.74 0.80 0.72 0.49 0.35 0.47 0.54 0.56 0.43 0.43 0.43 0.43 0.55 0.49 0.48 0.44 0.43 0.36 0.33 0.37 0.32 0.35 0.43 0.48 0.45 0.49 0.47 0.37 0.30 0.24 0.30 0.38 0.37 0.40 0.41 0.37 0.26 0.25 0.25 0.24
0.48 0.48 0.56 0.67 0.76 0.82 0.71 0.55 0.40 0.47 0.38 0.44 0.46 0.46 0.45 0.42 0.40 0.48 0.46 0.39 0.37 0.34 0.30 0.32 0.33 0.39 0.44 0.47 0.50 0.49 0.47 0.34 0.38 0.39 0.42 0.44 0.43 0.42 0.42 0.35 0.33 0.27 0.23 0.29
0.43 0.48 0.54 0.64 0.71 0.78 0.64 0.48 0.47 0.49 0.43 0.48 0.43 0.45 0.42 0.42 0.45 0.44 0.38 0.37 0.42 0.42 0.36 0.38 0.37 0.43 0.43 0.41 0.48 0.48 0.51 0.36 0.42 0.39 0.45 0.46 0.42 0.46 0.42 0.40 0.38 0.35 0.35 0.34
0.42 0.47 0.50 0.61 0.68 0.74 0.61 0.64 0.65 0.55 0.48 0.45 0.42 0.41 0.44 0.44 0.45 0.49 0.50 0.47 0.45 0.43 0.47 0.53 0.56 0.57 0.56 0.53 0.49 0.45 0.45 0.42 0.40 0.33 0.43 0.43 0.37 0.45 0.44 0.44 0.43 0.41 0.34 0.40
0.41 0.45 0.47 0.57 0.63 0.71 0.69 0.67 0.62 0.49 0.40 0.47 0.43 0.44 0.45 0.42 0.43 0.46 0.53 0.56 0.49 0.57 0.67 0.65 0.61 0.58 0.56 0.59 0.55 0.54 0.46 0.46 0.43 0.36 0.40 0.28 0.48 0.59 0.56 0.48 0.49 0.51 0.48 0.50
0.40 0.43 0.47 0.53 0.60 0.70 0.71 0.75 0.65 0.55 0.43 0.48 0.45 0.44 0.45 0.49 0.52 0.50 0.52 0.57 0.62 0.65 0.55 0.41 0.35 0.41 0.44 0.46 0.50 0.52 0.56 0.50 0.40 0.35 0.35 0.42 0.49 0.55 0.55 0.50 0.47 0.56 0.54 0.56
0.38 0.41 0.44 0.51 0.54 0.66 0.73 0.77 0.79 0.66 0.50 0.44 0.50 0.44 0.46 0.43 0.43 0.46 0.52 0.65 0.72 0.65 0.51 0.39 0.31 0.31 0.37 0.34 0.40 0.55 0.56 0.56 0.44 0.41 0.34 0.31 0.49 0.58 0.68 0.64 0.41 0.59 0.61 0.59
0.38 0.39 0.42 0.48 0.49 0.61 0.69 0.71 0.79 0.68 0.53 0.57 0.53 0.45 0.46 0.53 0.50 0.49 0.54 0.58 0.59 0.66 0.46 0.38 0.37 0.36 0.45 0.34 0.32 0.35 0.40 0.43 0.38 0.38 0.36 0.44 0.58 0.61 0.69 0.41 0.43 0.58 0.62 0.61
0.31 0.37 0.39 0.39 0.45 0.54 0.63 0.66 0.80 0.67 0.56 0.61 0.61 0.61 0.56 0.57 0.57 0.46 0.54 0.54 0.56 0.51 0.42 0.42 0.43 0.40 0.42 0.41 0.40 0.38 0.37 0.36 0.35 0.37 0.32 0.31 0.59 0.58 0.47 0.54 0.60 0.61 0.68 0.71
0.30 0.30 0.30 0.35 0.42 0.51 0.59 0.59 0.74 0.78 0.64 0.65 0.75 0.74 0.73 0.69 0.66 0.58 0.58 0.54 0.57 0.57 0.50 0.51 0.51 0.43 0.45 0.43 0.32 0.47 0.37 0.43 0.39 0.40 0.38 0.51 0.58 0.57 0.62 0.62 0.59 0.63 0.66 0.71
0.31 0.30 0.31 0.30 0.37 0.46 0.54 0.56 0.68 0.69 0.63 0.66 0.68 0.64 0.76 0.81 0.78 0.79 0.55 0.64 0.68 0.65 0.71 0.60 0.55 0.44 0.52 0.39 0.40 0.44 0.48 0.55 0.47 0.46 0.50 0.54 0.57 0.62 0.62 0.61 0.60 0.63 0.73 0.73
0.34 0.32 0.33 0.31 0.32 0.42 0.50 0.53 0.63 0.66 0.63 0.52 0.57 0.81 0.75 0.86 0.84 0.80 0.81 0.75 0.78 0.76 0.74 0.60 0.54 0.48 0.58 0.47 0.50 0.47 0.53 0.55 0.49 0.47 0.53 0.57 0.58 0.61 0.63 0.62 0.64 0.66 0.72 0.70
0.35 0.34 0.36 0.33 0.34 0.40 0.48 0.53 0.65 0.72 0.61 0.49 0.56 0.72 0.77 0.80 0.79 0.77 0.79 0.77 0.72 0.67 0.61 0.57 0.52 0.59 0.56 0.57 0.53 0.45 0.55 0.50 0.43 0.42 0.55 0.57 0.57 0.63 0.65 0.62 0.62 0.65 0.65 0.65
0.36 0.36 0.36 0.36 0.37 0.38 0.45 0.52 0.72 0.75 0.74 0.57 0.47 0.70 0.70 0.76 0.78 0.77 0.76 0.77 0.74 0.69 0.62 0.59 0.62 0.67 0.61 0.48 0.43 0.52 0.56 0.59 0.58 0.54 0.62 0.64 0.65 0.66 0.68 0.64 0.64 0.65 0.65 0.67
0.35 0.35 0.34 0.40 0.38 0.37 0.43 0.52 0.66 0.77 0.77 0.59 0.49 0.50 0.66 0.75 0.72 0.72 0.71 0.75 0.71 0.67 0.63 0.59 0.61 0.63 0.65 0.54 0.43 0.53 0.58 0.61 0.62 0.65 0.64 0.61 0.65 0.63 0.68 0.67 0.66 0.67 0.66 0.67
0.33 0.38 0.41 0.43 0.42 0.39 0.46 0.58 0.69 0.79 0.68 0.64 0.47 0.45 0.51 0.71 0.58 0.56 0.72 0.64 0.67 0.65 0.64 0.66 0.61 0.66 0.63 0.47 0.54 0.60 0.63 0.64 0.63 0.65 0.68 0.66 0.69 0.70 0.68 0.69 0.67 0.65 0.64 0.65
0.41 0.44 0.46 0.44 0.34 0.33 0.51 0.69 0.77 0.79 0.66 0.51 0.49 0.41 0.37 0.66 0.59 0.60 0.63 0.65 0.50 0.65 0.57 0.60 0.64 0.56 0.47 0.55 0.60 0.62 0.65 0.63 0.62 0.64 0.66 0.65 0.64 0.65 0.67 0.68 0.67 0.65 0.64 0.65
0.40 0.39 0.33 0.27 0.33 0.58 0.68 0.65 0.59 0.60 0.63 0.61 0.48 0.52 0.44 0.54 0.52 0.49 0.50 0.56 0.49 0.43 0.53 0.64 0.55 0.52 0.62 0.63 0.69 0.70 0.69 0.68 0.67 0.60 0.59 0.62 0.62 0.63 0.65 0.66 0.66 0.65 0.63 0.58
0.37 0.30 0.30 0.40 0.58 0.62 0.56 0.48 0.48 0.51 0.46 0.54 0.53 0.50 0.45 0.58 0.44 0.45 0.53 0.46 0.48 0.38 0.45 0.47 0.46 0.45 0.55 0.61 0.62 0.67 0.69 0.66 0.65 0.69 0.70 0.70 0.69 0.65 0.65 0.66 0.66 0.68 0.61 0.61
0.40 0.38 0.44 0.52 0.54 0.49 0.43 0.42 0.48 0.44 0.40 0.52 0.47 0.49 0.53 0.54 0.60 0.48 0.51 0.44 0.45 0.33 0.49 0.42 0.35 0.44 0.53 0.56 0.62 0.67 0.68 0.66 0.65 0.68 0.71 0.73 0.72 0.71 0.69 0.68 0.67 0.60 0.59 0.56
0.42 0.37 0.38 0.46 0.45 0.35 0.34 0.31 0.37 0.39 0.46 0.50 0.50 0.47 0.53 0.55 0.56 0.49 0.46 0.38 0.36 0.47 0.37 0.32 0.36 0.45 0.48 0.51 0.57 0.66 0.67 0.64 0.61 0.62 0.68 0.71 0.71 0.71 0.66 0.62 0.60 0.56 0.54 0.54
0.31 0.28 0.31 0.35 0.31 0.34 0.37 0.37 0.39 0.47 0.50 0.51 0.51 0.49 0.48 0.52 0.47 0.48 0.39 0.42 0.42 0.32 0.28 0.26 0.34 0.38 0.40 0.45 0.57 0.63 0.65 0.61 0.58 0.58 0.59 0.60 0.62 0.61 0.61 0.60 0.58 0.56 0.55 0.56
0.28 0.30 0.26 0.31 0.38 0.42 0.44 0.46 0.46 0.51 0.55 0.53 0.51 0.50 0.50 0.46 0.43 0.44 0.41 0.35 0.30 0.30 0.27 0.34 0.36 0.37 0.38 0.42 0.51 0.58 0.62 0.62 0.58 0.59 0.58 0.58 0.59 0.60 0.59 0.59 0.58 0.56 0.55 0.54
0.27 0.29 0.28 0.35 0.34 0.34 0.37 0.40 0.44 0.53 0.54 0.56 0.54 0.47 0.42 0.40 0.40 0.36 0.33 0.32 0.28 0.32 0.36 0.38 0.36 0.37 0.40 0.43 0.46 0.50 0.56 0.60 0.62 0.62 0.61 0.60 0.59 0.59 0.58 0.58 0.57 0.56 0.55 0.53
0.22 0.22 0.31 0.33 0.32 0.30 0.34 0.36 0.40 0.51 0.50 0.44 0.47 0.39 0.38 0.44 0.36 0.33 0.38 0.34 0.38 0.41 0.42 0.42 0.42 0.41 0.42 0.44 0.45 0.47 0.50 0.51 0.54 0.58 0.60 0.60 0.62 0.61 0.58 0.55 0.55 0.55 0.54 0.50

GFSNW_prec_pwat_018.txt.gz
Precipitable_Water
0.46 0.53 0.59 0.71 0.75 0.77 0.64 0.53 0.32 0.63 0.70 0.39 0.44 0.39 0.47 0.56 0.50 0.54 0.47 0.44 0.38 0.34 0.34 0.32 0.32 0.33 0.37 0.43 0.43 0.34 0.39 0.33 0.25 0.27 0.35 0.38 0.38 0.34 0.34 0.26 0.24 0.29 0.27 0.22
0.46 0.51 0.56 0.68 0.71 0.69 0.59 0.35 0.41 0.66 0.67 0.35 0.38 0.49 0.48 0.50 0.49 0.51 0.46 0.41 0.42 0.39 0.35 0.32 0.37 0.38 0.43 0.45 0.42 0.37 0.38 0.30 0.21 0.27 0.34 0.39 0.35 0.37 0.39 0.39 0.38 0.29 0.25 0.24
0.45 0.51 0.54 0.65 0.70 0.68 0.60 0.41 0.34 0.48 0.57 0.57 0.47 0.45 0.45 0.46 0.58 0.52 0.51 0.46 0.44 0.39 0.35 0.39 0.34 0.35 0.41 0.42 0.42 0.45 0.44 0.36 0.28 0.21 0.29 0.37 0.35 0.39 0.42 0.40 0.32 0.31 0.31 0.30
0.45 0.48 0.52 0.59 0.68 0.67 0.60 0.51 0.39 0.46 0.35 0.42 0.46 0.51 0.50 0.45 0.42 0.51 0.50 0.43 0.42 0.37 0.32 0.33 0.33 0.37 0.39 0.42 0.44 0.45 0.43 0.30 0.34 0.36 0.36 0.38 0.39 0.40 0.43 0.41 0.42 0.34 0.35 0.39
0.40 0.44 0.50 0.55 0.63 0.69 0.54 0.40 0.42 0.47 0.42 0.45 0.45 0.46 0.46 0.45 0.45 0.46 0.41 0.40 0.43 0.42 0.35 0.37 0.32 0.36 0.38 0.37 0.45 0.42 0.43 0.34 0.38 0.34 0.41 0.42 0.40 0.44 0.44 0.46 0.47 0.45 0.47 0.45
0.39 0.40 0.47 0.51 0.58 0.67 0.54 0.57 0.59 0.51 0.40 0.41 0.39 0.40 0.43 0.45 0.48 0.49 0.49 0.46 0.42 0.42 0.45 0.50 0.51 0.51 0.50 0.49 0.44 0.41 0.44 0.40 0.38 0.33 0.40 0.40 0.36 0.44 0.48 0.50 0.52 0.50 0.41 0.52
0.36 0.37 0.37 0.44 0.52 0.64 0.62 0.59 0.55 0.43 0.34 0.38 0.38 0.42 0.43 0.43 0.48 0.43 0.50 0.51 0.44 0.55 0.62 0.59 0.56 0.55 0.50 0.51 0.50 0.52 0.45 0.44 0.43 0.37 0.39 0.27 0.45 0.57 0.57 0.51 0.53 0.57 0.54 0.61
0.36 0.35 0.30 0.34 0.45 0.54 0.58 0.65 0.55 0.46 0.34 0.39 0.39 0.41 0.41 0.46 0.50 0.47 0.48 0.54 0.60 0.64 0.55 0.43 0.38 0.37 0.37 0.41 0.49 0.51 0.55 0.48 0.40 0.35 0.34 0.38 0.47 0.56 0.51 0.48 0.47 0.59 0.56 0.62
0.41 0.37 0.36 0.30 0.32 0.45 0.49 0.65 0.66 0.54 0.42 0.37 0.47 0.42 0.45 0.41 0.41 0.44 0.48 0.60 0.65 0.61 0.49 0.40 0.28 0.26 0.35 0.34 0.41 0.55 0.56 0.54 0.43 0.39 0.32 0.28 0.46 0.56 0.63 0.60 0.40 0.58 0.61 0.60
0.45 0.41 0.40 0.35 0.31 0.31 0.42 0.54 0.67 0.57 0.43 0.52 0.53 0.41 0.42 0.49 0.46 0.43 0.50 0.54 0.55 0.63 0.46 0.35 0.32 0.29 0.39 0.31 0.36 0.39 0.42 0.44 0.36 0.38 0.36 0.39 0.51 0.57 0.62 0.40 0.41 0.58 0.60 0.64
0.45 0.42 0.42 0.40 0.35 0.31 0.30 0.41 0.61 0.54 0.46 0.53 0.60 0.61 0.51 0.49 0.48 0.41 0.53 0.51 0.55 0.52 0.42 0.39 0.39 0.36 0.40 0.39 0.43 0.44 0.39 0.36 0.35 0.39 0.33 0.29 0.57 0.56 0.45 0.53 0.60 0.61 0.63 0.66
0.48 0.45 0.42 0.42 0.40 0.34 0.32 0.25 0.50 0.57 0.52 0.53 0.68 0.69 0.71 0.68 0.65 0.56 0.57 0.56 0.54 0.56 0.46 0.46 0.46 0.40 0.43 0.41 0.35 0.52 0.39 0.44 0.40 0.40 0.40 0.52 0.59 0.58 0.63 0.63 0.60 0.59 0.63 0.70
0.49 0.44 0.44 0.43 0.40 0.41 0.31 0.29 0.35 0.50 0.51 0.55 0.61 0.61 0.70 0.77 0.75 0.79 0.57 0.59 0.63 0.59 0.67 0.56 0.53 0.42 0.48 0.38 0.40 0.46 0.51 0.55 0.46 0.45 0.52 0.55 0.58 0.63 0.63 0.63 0.60 0.63 0.68 0.72
0.48 0.43 0.43 0.41 0.40 0.43 0.38 0.28 0.33 0.47 0.52 0.45 0.57 0.80 0.70 0.79 0.77 0.75 0.74 0.69 0.72 0.70 0.71 0.58 0.51 0.45 0.56 0.46 0.50 0.48 0.55 0.58 0.50 0.48 0.52 0.56 0.58 0.60 0.62 0.61 0.64 0.68 0.71 0.73
0.46 0.45 0.46 0.44 0.43 0.44 0.39 0.33 0.34 0.44 0.51 0.45 0.54 0.70 0.76 0.80 0.77 0.72 0.74 0.70 0.65 0.63 0.58 0.54 0.49 0.56 0.54 0.53 0.52 0.45 0.53 0.50 0.47 0.44 0.56 0.55 0.54 0.61 0.65 0.61 0.62 0.66 0.69 0.68
0.46 0.45 0.50 0.44 0.42 0.40 0.35 0.25 0.38 0.59 0.63 0.51 0.46 0.72 0.69 0.75 0.77 0.74 0.72 0.71 0.68 0.67 0.61 0.56 0.59 0.65 0.56 0.45 0.42 0.52 0.56 0.58 0.58 0.53 0.59 0.60 0.61 0.64 0.67 0.64 0.64 0.66 0.65 0.66
0.46 0.47 0.48 0.46 0.47 0.44 0.32 0.25 0.44 0.66 0.67 0.52 0.49 0.52 0.69 0.77 0.74 0.72 0.69 0.72 0.68 0.65 0.61 0.57 0.57 0.58 0.60 0.50 0.42 0.52 0.56 0.62 0.63 0.65 0.63 0.57 0.61 0.59 0.68 0.67 0.66 0.67 0.67 0.68
0.44 0.48 0.46 0.49 0.49 0.45 0.33 0.36 0.61 0.67 0.58 0.59 0.46 0.48 0.56 0.74 0.61 0.57 0.69 0.60 0.64 0.63 0.59 0.61 0.55 0.59 0.58 0.45 0.53 0.60 0.62 0.61 0.62 0.63 0.66 0.65 0.66 0.65 0.67 0.70 0.68 0.65 0.65 0.67
0.45 0.43 0.48 0.42 0.36 0.27 0.37 0.64 0.67 0.70 0.60 0.48 0.51 0.42 0.40 0.67 0.60 0.62 0.62 0.65 0.50 0.64 0.53 0.53 0.55 0.51 0.46 0.53 0.59 0.64 0.68 0.66 0.66 0.67 0.65 0.64 0.63 0.64 0.67 0.68 0.68 0.65 0.65 0.67
0.44 0.41 0.34 0.23 0.35 0.56 0.65 0.59 0.52 0.54 0.57 0.59 0.50 0.57 0.45 0.58 0.55 0.51 0.55 0.58 0.49 0.41 0.48 0.58 0.48 0.47 0.60 0.66 0.67 0.67 0.69 0.72 0.71 0.64 0.61 0.62 0.62 0.63 0.65 0.66 0.68 0.68 0.72 0.69
0.41 0.30 0.26 0.40 0.56 0.57 0.53 0.45 0.45 0.48 0.45 0.54 0.56 0.55 0.48 0.62 0.47 0.48 0.54 0.47 0.48 0.35 0.42 0.42 0.43 0.43 0.57 0.62 0.58 0.57 0.62 0.65 0.72 0.72 0.73 0.73 0.69 0.67 0.66 0.66 0.67 0.69 0.68 0.68
0.44 0.47 0.55 0.55 0.49 0.47 0.41 0.40 0.44 0.43 0.41 0.52 0.50 0.51 0.56 0.56 0.62 0.49 0.51 0.42 0.44 0.32 0.48 0.39 0.34 0.47 0.52 0.46 0.47 0.54 0.65 0.71 0.69 0.71 0.68 0.70 0.72 0.73 0.72 0.69 0.68 0.67 0.72 0.67
0.49 0.45 0.42 0.42 0.41 0.32 0.31 0.29 0.35 0.38 0.47 0.51 0.51 0.48 0.54 0.55 0.57 0.49 0.45 0.36 0.34 0.46 0.37 0.33 0.40 0.47 0.43 0.44 0.49 0.57 0.66 0.73 0.71 0.67 0.69 0.70 0.77 0.78 0.75 0.71 0.69 0.71 0.70 0.65
0.31 0.34 0.29 0.33 0.29 0.32 0.34 0.35 0.38 0.46 0.50 0.50 0.51 0.48 0.48 0.50 0.45 0.46 0.36 0.42 0.42 0.32 0.30 0.32 0.43 0.41 0.43 0.46 0.48 0.56 0.65 0.69 0.68 0.68 0.66 0.68 0.75 0.77 0.75 0.71 0.77 0.72 0.66 0.59
0.26 0.32 0.27 0.30 0.36 0.39 0.41 0.44 0.45 0.49 0.52 0.51 0.49 0.50 0.49 0.45 0.42 0.43 0.40 0.34 0.30 0.32 0.32 0.42 0.44 0.44 0.45 0.46 0.46 0.48 0.60 0.68 0.68 0.65 0.65 0.66 0.68 0.71 0.75 0.74 0.70 0.65 0.62 0.58
0.25 0.29 0.29 0.35 0.35 0.35 0.37 0.41 0.43 0.50 0.51 0.53 0.51 0.45 0.40 0.39 0.39 0.35 0.32 0.30 0.27 0.36 0.40 0.45 0.46 0.45 0.46 0.47 0.49 0.49 0.50 0.56 0.65 0.67 0.65 0.64 0.64 0.63 0.64 0.65 0.65 0.63 0.58 0.56
0.26 0.22 0.30 0.34 0.37 0.36 0.36 0.39 0.42 0.50 0.47 0.41 0.44 0.37 0.36 0.44 0.36 0.32 0.38 0.33 0.38 0.41 0.45 0.49 0.50 0.49 0.47 0.47 0.47 0.49 0.50 0.51 0.52 0.57 0.62 0.63 0.64 0.64 0.63 0.60 0.61 0.60 0.58 0.55

GFSNW_prec_pwat_024.txt.gz
Precipitable_Water
0.51 0.53 0.52 0.58 0.63 0.64 0.58 0.46 0.31 0.62 0.73 0.46 0.48 0.40 0.45 0.54 0.50 0.53 0.45 0.43 0.39 0.36 0.37 0.29 0.27 0.26 0.31 0.40 0.37 0.29 0.35 0.28 0.21 0.26 0.36 0.39 0.35 0.30 0.28 0.21 0.19 0.26 0.25 0.23
0.46 0.49 0.51 0.58 0.62 0.65 0.56 0.41 0.44 0.64 0.61 0.33 0.38 0.47 0.47 0.50 0.44 0.43 0.41 0.38 0.42 0.44 0.39 0.30 0.30 0.32 0.39 0.41 0.38 0.32 0.34 0.26 0.19 0.22 0.29 0.35 0.30 0.32 0.34 0.34 0.34 0.29 0.25 0.24
0.38 0.43 0.48 0.56 0.62 0.65 0.58 0.42 0.32 0.46 0.56 0.51 0.41 0.38 0.40 0.39 0.49 0.45 0.40 0.38 0.42 0.40 0.36 0.37 0.31 0.32 0.40 0.43 0.42 0.43 0.41 0.31 0.24 0.19 0.25 0.31 0.28 0.34 0.37 0.37 0.31 0.30 0.30 0.29
0.38 0.36 0.44 0.52 0.59 0.62 0.56 0.43 0.36 0.45 0.35 0.39 0.43 0.44 0.41 0.37 0.38 0.47 0.45 0.39 0.39 0.38 0.32 0.34 0.34 0.37 0.38 0.43 0.44 0.42 0.37 0.26 0.31 0.33 0.33 0.35 0.34 0.35 0.38 0.36 0.37 0.30 0.33 0.35
0.42 0.35 0.35 0.44 0.56 0.61 0.47 0.35 0.36 0.44 0.41 0.44 0.41 0.41 0.37 0.37 0.40 0.42 0.39 0.38 0.40 0.40 0.35 0.35 0.31 0.35 0.35 0.34 0.41 0.38 0.41 0.30 0.32 0.28 0.35 0.36 0.34 0.40 0.42 0.42 0.40 0.39 0.39 0.38
0.49 0.39 0.36 0.33 0.42 0.58 0.48 0.50 0.53 0.46 0.38 0.37 0.35 0.36 0.37 0.37 0.42 0.45 0.47 0.44 0.43 0.40 0.42 0.46 0.45 0.45 0.42 0.42 0.37 0.37 0.38 0.33 0.30 0.26 0.37 0.39 0.33 0.41 0.44 0.44 0.47 0.45 0.38 0.45
0.52 0.48 0.40 0.37 0.34 0.38 0.54 0.54 0.51 0.38 0.30 0.36 0.35 0.38 0.41 0.39 0.43 0.38 0.45 0.46 0.41 0.52 0.62 0.58 0.53 0.50 0.46 0.45 0.44 0.46 0.38 0.35 0.35 0.33 0.38 0.26 0.44 0.53 0.54 0.49 0.50 0.53 0.51 0.52
0.57 0.54 0.48 0.44 0.38 0.34 0.31 0.49 0.50 0.43 0.30 0.38 0.37 0.38 0.39 0.43 0.45 0.42 0.45 0.50 0.54 0.59 0.52 0.42 0.38 0.37 0.38 0.41 0.45 0.44 0.46 0.40 0.35 0.32 0.33 0.37 0.42 0.50 0.51 0.47 0.44 0.52 0.51 0.54
0.58 0.60 0.55 0.51 0.47 0.41 0.30 0.36 0.40 0.45 0.37 0.32 0.44 0.39 0.39 0.36 0.37 0.42 0.46 0.58 0.63 0.57 0.46 0.39 0.28 0.25 0.30 0.31 0.38 0.47 0.47 0.47 0.42 0.37 0.30 0.28 0.44 0.56 0.62 0.59 0.39 0.54 0.56 0.55
0.54 0.58 0.57 0.57 0.56 0.51 0.40 0.33 0.37 0.32 0.27 0.42 0.47 0.38 0.38 0.44 0.41 0.38 0.44 0.48 0.48 0.55 0.41 0.33 0.30 0.28 0.40 0.31 0.31 0.33 0.36 0.39 0.37 0.35 0.33 0.38 0.49 0.57 0.64 0.38 0.39 0.57 0.58 0.58
0.57 0.53 0.57 0.55 0.57 0.55 0.50 0.40 0.44 0.31 0.24 0.24 0.41 0.50 0.48 0.48 0.46 0.39 0.47 0.44 0.48 0.46 0.38 0.36 0.35 0.33 0.36 0.35 0.38 0.36 0.35 0.35 0.36 0.39 0.32 0.30 0.56 0.58 0.46 0.53 0.60 0.59 0.59 0.60
0.62 0.56 0.57 0.54 0.54 0.53 0.51 0.40 0.46 0.44 0.31 0.20 0.30 0.44 0.55 0.57 0.61 0.55 0.56 0.48 0.49 0.49 0.43 0.43 0.43 0.37 0.42 0.38 0.30 0.46 0.36 0.43 0.41 0.41 0.38 0.50 0.57 0.56 0.62 0.64 0.58 0.59 0.59 0.63
0.67 0.62 0.54 0.53 0.53 0.55 0.53 0.46 0.46 0.41 0.29 0.22 0.21 0.18 0.45 0.58 0.61 0.69 0.54 0.56 0.60 0.57 0.60 0.51 0.48 0.39 0.45 0.35 0.37 0.41 0.48 0.56 0.48 0.49 0.51 0.53 0.58 0.62 0.64 0.64 0.60 0.62 0.64 0.66
0.71 0.62 0.53 0.53 0.52 0.56 0.58 0.49 0.46 0.42 0.29 0.17 0.14 0.39 0.46 0.66 0.77 0.72 0.75 0.70 0.69 0.67 0.62 0.51 0.48 0.42 0.54 0.43 0.45 0.45 0.49 0.52 0.49 0.50 0.54 0.57 0.60 0.62 0.63 0.61 0.64 0.63 0.66 0.70
0.69 0.59 0.53 0.55 0.59 0.55 0.52 0.48 0.45 0.43 0.30 0.16 0.16 0.22 0.39 0.65 0.76 0.74 0.75 0.70 0.65 0.61 0.54 0.50 0.46 0.53 0.51 0.52 0.49 0.43 0.50 0.45 0.42 0.40 0.52 0.56 0.59 0.66 0.66 0.61 0.61 0.63 0.63 0.67
0.64 0.55 0.54 0.55 0.52 0.52 0.43 0.30 0.46 0.44 0.37 0.22 0.14 0.39 0.48 0.69 0.76 0.71 0.69 0.69 0.65 0.64 0.56 0.52 0.56 0.64 0.53 0.43 0.40 0.49 0.54 0.57 0.57 0.53 0.62 0.61 0.62 0.66 0.66 0.61 0.63 0.65 0.64 0.66
0.59 0.51 0.53 0.49 0.50 0.47 0.32 0.27 0.38 0.50 0.46 0.31 0.32 0.38 0.60 0.72 0.72 0.70 0.66 0.69 0.68 0.64 0.58 0.53 0.54 0.55 0.56 0.48 0.39 0.51 0.59 0.65 0.68 0.68 0.65 0.60 0.63 0.61 0.66 0.64 0.65 0.68 0.65 0.66
0.51 0.50 0.48 0.48 0.46 0.40 0.35 0.45 0.53 0.55 0.49 0.46 0.35 0.41 0.55 0.73 0.58 0.55 0.69 0.62 0.65 0.63 0.58 0.59 0.52 0.56 0.54 0.40 0.50 0.58 0.62 0.62 0.65 0.66 0.69 0.68 0.70 0.68 0.66 0.66 0.66 0.63 0.63 0.65
0.42 0.52 0.51 0.50 0.46 0.41 0.47 0.61 0.63 0.62 0.51 0.39 0.41 0.40 0.41 0.69 0.59 0.64 0.62 0.66 0.50 0.63 0.51 0.52 0.54 0.47 0.40 0.47 0.50 0.53 0.57 0.55 0.55 0.61 0.66 0.67 0.66 0.66 0.66 0.64 0.63 0.62 0.62 0.67
0.44 0.52 0.42 0.38 0.48 0.59 0.61 0.56 0.49 0.50 0.50 0.49 0.43 0.56 0.46 0.60 0.57 0.54 0.54 0.57 0.50 0.43 0.51 0.59 0.48 0.43 0.53 0.53 0.53 0.55 0.55 0.57 0.55 0.53 0.51 0.59 0.63 0.64 0.66 0.64 0.64 0.63 0.63 0.69
0.36 0.41 0.40 0.51 0.59 0.52 0.47 0.38 0.39 0.44 0.42 0.50 0.53 0.56 0.51 0.66 0.49 0.50 0.58 0.49 0.51 0.38 0.45 0.45 0.41 0.39 0.47 0.54 0.53 0.50 0.51 0.55 0.60 0.66 0.66 0.65 0.68 0.69 0.68 0.66 0.66 0.65 0.65 0.71
0.34 0.43 0.54 0.55 0.48 0.42 0.35 0.34 0.41 0.41 0.40 0.52 0.52 0.55 0.59 0.61 0.65 0.52 0.53 0.44 0.47 0.36 0.52 0.42 0.33 0.43 0.51 0.47 0.45 0.48 0.56 0.58 0.65 0.69 0.69 0.69 0.69 0.72 0.71 0.69 0.69 0.69 0.68 0.72
0.42 0.41 0.40 0.41 0.42 0.30 0.29 0.27 0.33 0.37 0.46 0.51 0.53 0.50 0.57 0.59 0.59 0.49 0.46 0.38 0.36 0.48 0.38 0.33 0.38 0.47 0.45 0.47 0.48 0.49 0.60 0.65 0.70 0.71 0.72 0.71 0.72 0.73 0.71 0.70 0.71 0.71 0.68 0.70
0.30 0.30 0.29 0.31 0.31 0.31 0.33 0.34 0.37 0.45 0.48 0.50 0.53 0.52 0.51 0.54 0.48 0.48 0.37 0.42 0.42 0.31 0.28 0.30 0.42 0.45 0.45 0.49 0.50 0.49 0.56 0.66 0.69 0.73 0.72 0.72 0.75 0.73 0.74 0.75 0.72 0.70 0.68 0.69
0.28 0.29 0.26 0.30 0.37 0.40 0.40 0.42 0.43 0.48 0.52 0.52 0.50 0.51 0.51 0.47 0.44 0.44 0.41 0.34 0.29 0.31 0.30 0.40 0.47 0.46 0.48 0.49 0.49 0.49 0.50 0.53 0.58 0.66 0.69 0.67 0.70 0.72 0.75 0.77 0.76 0.74 0.72 0.72
0.33 0.31 0.27 0.33 0.34 0.35 0.38 0.40 0.40 0.49 0.49 0.52 0.51 0.45 0.41 0.40 0.40 0.36 0.32 0.30 0.27 0.32 0.39 0.45 0.47 0.47 0.48 0.49 0.50 0.50 0.50 0.51 0.52 0.55 0.62 0.64 0.66 0.68 0.72 0.75 0.77 0.76 0.74 0.72
0.33 0.31 0.34 0.30 0.26 0.31 0.39 0.42 0.43 0.50 0.46 0.40 0.43 0.36 0.34 0.43 0.36 0.33 0.37 0.32 0.37 0.42 0.44 0.47 0.47 0.47 0.47 0.48 0.49 0.51 0.52 0.51 0.51 0.52 0.52 0.54 0.58 0.62 0.63 0.63 0.68 0.73 0.74 0.74

GFSNW_prec_pwat_027.txt.gz
Precipitable_Water
0.39 0.48 0.53 0.59 0.61 0.64 0.56 0.47 0.33 0.63 0.72 0.42 0.45 0.37 0.42 0.48 0.44 0.48 0.42 0.41 0.39 0.37 0.36 0.32 0.29 0.28 0.32 0.39 0.41 0.32 0.37 0.30 0.22 0.27 0.36 0.39 0.34 0.29 0.27 0.18 0.17 0.22 0.22 0.22
0.39 0.40 0.49 0.57 0.60 0.65 0.54 0.41 0.43 0.62 0.62 0.33 0.36 0.44 0.42 0.45 0.42 0.42 0.40 0.38 0.40 0.42 0.36 0.27 0.28 0.28 0.35 0.40 0.36 0.33 0.35 0.25 0.18 0.20 0.29 0.35 0.29 0.31 0.31 0.30 0.29 0.23 0.22 0.25
0.40 0.37 0.41 0.52 0.58 0.64 0.58 0.43 0.32 0.43 0.51 0.51 0.41 0.38 0.38 0.37 0.47 0.40 0.42 0.40 0.43 0.40 0.36 0.37 0.29 0.30 0.37 0.41 0.40 0.42 0.39 0.28 0.23 0.18 0.23 0.29 0.25 0.29 0.32 0.32 0.26 0.28 0.29 0.30
0.45 0.38 0.35 0.41 0.54 0.61 0.53 0.40 0.35 0.45 0.33 0.37 0.41 0.43 0.41 0.38 0.37 0.43 0.41 0.38 0.38 0.38 0.33 0.33 0.30 0.33 0.36 0.41 0.44 0.41 0.37 0.26 0.30 0.31 0.32 0.32 0.31 0.31 0.34 0.33 0.35 0.31 0.32 0.32
0.51 0.45 0.36 0.34 0.40 0.62 0.47 0.32 0.34 0.45 0.42 0.43 0.38 0.38 0.37 0.37 0.40 0.42 0.36 0.35 0.39 0.41 0.35 0.36 0.32 0.35 0.36 0.34 0.40 0.38 0.39 0.29 0.32 0.27 0.30 0.31 0.30 0.33 0.37 0.39 0.40 0.38 0.38 0.36
0.55 0.49 0.43 0.39 0.32 0.46 0.46 0.50 0.49 0.42 0.39 0.38 0.35 0.35 0.37 0.37 0.42 0.45 0.46 0.43 0.41 0.40 0.43 0.46 0.45 0.44 0.43 0.41 0.36 0.35 0.35 0.32 0.28 0.22 0.32 0.34 0.30 0.37 0.41 0.43 0.44 0.42 0.35 0.43
0.63 0.54 0.47 0.44 0.41 0.32 0.39 0.47 0.50 0.35 0.26 0.34 0.35 0.39 0.41 0.39 0.42 0.38 0.45 0.47 0.43 0.53 0.62 0.57 0.53 0.47 0.43 0.43 0.41 0.43 0.36 0.34 0.32 0.25 0.34 0.24 0.40 0.52 0.52 0.48 0.48 0.49 0.49 0.51
0.66 0.61 0.52 0.48 0.48 0.43 0.31 0.39 0.37 0.38 0.28 0.32 0.35 0.38 0.40 0.43 0.44 0.43 0.44 0.49 0.55 0.61 0.53 0.42 0.37 0.36 0.36 0.38 0.42 0.42 0.43 0.37 0.30 0.26 0.30 0.36 0.41 0.49 0.50 0.47 0.44 0.54 0.50 0.54
0.71 0.59 0.58 0.53 0.53 0.52 0.41 0.37 0.39 0.35 0.24 0.28 0.39 0.38 0.42 0.36 0.36 0.39 0.45 0.57 0.63 0.57 0.45 0.38 0.28 0.25 0.30 0.29 0.35 0.47 0.45 0.44 0.36 0.34 0.28 0.26 0.43 0.57 0.62 0.59 0.40 0.57 0.56 0.54
0.72 0.62 0.57 0.59 0.56 0.57 0.48 0.41 0.42 0.32 0.26 0.28 0.35 0.35 0.38 0.46 0.40 0.36 0.43 0.48 0.48 0.55 0.40 0.33 0.29 0.27 0.38 0.28 0.28 0.32 0.35 0.35 0.30 0.34 0.31 0.35 0.48 0.54 0.64 0.39 0.41 0.58 0.57 0.57
0.78 0.70 0.61 0.62 0.61 0.58 0.57 0.47 0.51 0.38 0.29 0.25 0.28 0.37 0.40 0.44 0.46 0.35 0.43 0.44 0.46 0.44 0.35 0.34 0.33 0.31 0.35 0.35 0.38 0.35 0.33 0.31 0.30 0.36 0.33 0.27 0.54 0.58 0.49 0.56 0.60 0.60 0.58 0.59
0.74 0.75 0.69 0.63 0.60 0.61 0.62 0.49 0.56 0.55 0.43 0.34 0.35 0.30 0.33 0.44 0.51 0.49 0.52 0.45 0.46 0.45 0.39 0.41 0.42 0.36 0.39 0.36 0.28 0.45 0.33 0.37 0.37 0.40 0.39 0.50 0.57 0.58 0.63 0.63 0.61 0.58 0.58 0.60
0.71 0.75 0.72 0.63 0.57 0.56 0.56 0.52 0.54 0.49 0.40 0.36 0.36 0.28 0.27 0.37 0.45 0.54 0.45 0.54 0.59 0.54 0.58 0.49 0.46 0.36 0.43 0.34 0.36 0.41 0.47 0.52 0.44 0.47 0.51 0.54 0.59 0.63 0.65 0.64 0.61 0.62 0.63 0.63
0.71 0.74 0.75 0.67 0.56 0.55 0.60 0.55 0.54 0.46 0.35 0.23 0.20 0.30 0.29 0.42 0.49 0.55 0.58 0.63 0.71 0.68 0.61 0.50 0.45 0.39 0.50 0.41 0.43 0.42 0.47 0.51 0.46 0.47 0.53 0.57 0.60 0.62 0.63 0.64 0.65 0.62 0.64 0.64
0.71 0.69 0.71 0.59 0.57 0.58 0.55 0.50 0.46 0.46 0.33 0.19 0.18 0.24 0.19 0.20 0.32 0.51 0.69 0.64 0.64 0.61 0.53 0.49 0.43 0.50 0.48 0.50 0.48 0.42 0.49 0.43 0.39 0.38 0.51 0.53 0.55 0.64 0.67 0.63 0.63 0.62 0.62 0.61
0.66 0.68 0.63 0.53 0.53 0.51 0.43 0.29 0.42 0.46 0.45 0.28 0.15 0.20 0.19 0.27 0.35 0.55 0.66 0.67 0.68 0.63 0.56 0.52 0.54 0.57 0.50 0.41 0.39 0.48 0.52 0.54 0.57 0.52 0.61 0.60 0.63 0.64 0.65 0.63 0.65 0.64 0.64 0.65
0.64 0.60 0.50 0.50 0.49 0.48 0.36 0.30 0.42 0.55 0.54 0.35 0.28 0.30 0.38 0.33 0.55 0.65 0.67 0.72 0.67 0.60 0.56 0.53 0.53 0.52 0.54 0.46 0.38 0.48 0.55 0.58 0.62 0.64 0.63 0.60 0.61 0.60 0.66 0.66 0.67 0.66 0.65 0.67
0.61 0.47 0.52 0.53 0.54 0.49 0.42 0.52 0.55 0.59 0.49 0.43 0.32 0.29 0.39 0.56 0.53 0.53 0.71 0.60 0.61 0.61 0.58 0.58 0.50 0.54 0.52 0.39 0.49 0.51 0.54 0.56 0.58 0.60 0.63 0.61 0.66 0.67 0.68 0.68 0.67 0.63 0.62 0.63
0.50 0.46 0.55 0.56 0.50 0.43 0.46 0.61 0.64 0.61 0.50 0.38 0.39 0.35 0.38 0.64 0.56 0.60 0.60 0.61 0.47 0.60 0.52 0.51 0.53 0.46 0.38 0.44 0.46 0.48 0.51 0.51 0.54 0.57 0.55 0.57 0.61 0.63 0.65 0.66 0.66 0.63 0.62 0.62
0.39 0.46 0.45 0.39 0.49 0.63 0.64 0.56 0.48 0.47 0.48 0.48 0.42 0.49 0.45 0.59 0.55 0.52 0.52 0.54 0.47 0.41 0.48 0.58 0.45 0.43 0.50 0.50 0.51 0.52 0.52 0.52 0.49 0.48 0.47 0.51 0.53 0.60 0.64 0.66 0.67 0.65 0.64 0.62
0.35 0.33 0.40 0.52 0.59 0.52 0.48 0.40 0.39 0.42 0.40 0.47 0.51 0.53 0.50 0.64 0.48 0.48 0.55 0.46 0.50 0.38 0.45 0.44 0.40 0.39 0.46 0.51 0.52 0.53 0.51 0.50 0.53 0.55 0.61 0.65 0.64 0.61 0.66 0.69 0.70 0.67 0.65 0.62
0.38 0.36 0.46 0.52 0.47 0.43 0.35 0.33 0.39 0.40 0.39 0.49 0.49 0.53 0.57 0.61 0.65 0.52 0.53 0.44 0.47 0.35 0.52 0.42 0.33 0.42 0.48 0.50 0.49 0.47 0.49 0.57 0.61 0.66 0.66 0.67 0.70 0.69 0.69 0.71 0.70 0.69 0.69 0.66
0.47 0.39 0.34 0.39 0.41 0.32 0.29 0.26 0.32 0.36 0.46 0.50 0.52 0.50 0.57 0.60 0.59 0.51 0.49 0.39 0.38 0.50 0.39 0.34 0.38 0.46 0.49 0.46 0.47 0.48 0.56 0.62 0.63 0.65 0.69 0.70 0.72 0.72 0.72 0.69 0.70 0.70 0.68 0.70
0.34 0.29 0.25 0.29 0.31 0.35 0.34 0.35 0.36 0.44 0.48 0.50 0.52 0.52 0.51 0.55 0.49 0.48 0.37 0.42 0.43 0.32 0.27 0.28 0.39 0.45 0.47 0.47 0.50 0.49 0.50 0.55 0.59 0.65 0.70 0.71 0.74 0.75 0.75 0.73 0.71 0.68 0.66 0.66
0.32 0.32 0.23 0.28 0.36 0.42 0.42 0.43 0.42 0.46 0.50 0.50 0.49 0.51 0.52 0.47 0.44 0.45 0.41 0.35 0.29 0.30 0.29 0.37 0.45 0.48 0.47 0.48 0.50 0.50 0.50 0.51 0.53 0.59 0.65 0.67 0.69 0.70 0.72 0.74 0.73 0.72 0.71 0.69
0.36 0.33 0.26 0.30 0.31 0.33 0.37 0.39 0.39 0.47 0.48 0.52 0.50 0.45 0.42 0.40 0.41 0.37 0.33 0.30 0.27 0.32 0.38 0.44 0.48 0.47 0.48 0.48 0.49 0.50 0.51 0.51 0.52 0.53 0.54 0.57 0.61 0.63 0.67 0.73 0.74 0.73 0.72 0.71
0.32 0.31 0.36 0.35 0.33 0.28 0.33 0.37 0.43 0.49 0.45 0.39 0.42 0.36 0.35 0.44 0.36 0.33 0.38 0.33 0.37 0.41 0.43 0.47 0.47 0.46 0.46 0.48 0.46 0.47 0.49 0.50 0.51 0.51 0.52 0.53 0.54 0.55 0.59 0.60 0.67 0.72 0.74 0.73